Weather History for KTIF - February, 2013

Change the Weather History Date:

Thursday, February 21, 2013

  Actual Average (KLBF) Record (KLBF)
Temperature  
Mean Temperature 16 °F 31 °F  
Max Temperature 19 °F 45 °F 75 °F (2000)
Min Temperature 12 °F 17 °F -11 °F (1978)
Degree Days  
Heating Degree Days 49 34  
Month to date heating degree days 776  
Since 1 July heating degree days 4796  
Cooling Degree Days 0 0  
Month to date cooling degree days 0  
Year to date cooling degree days 0  
Moisture  
Dew Point 12 °F    
Average Humidity 79    
Maximum Humidity 82    
Minimum Humidity 75    
Precipitation  
Precipitation 0.03 in 0.02 in 0.37 in (2013)
Month to date precipitation 0.33  
Year to date precipitation 0.67  
Snow  
Snow 0.00 in 0.20 in 4.60 in (2013)
Month to date snowfall 4.0  
Since 1 July snowfall 19.6  
Snow Depth -    
Sea Level Pressure  
Sea Level Pressure 29.93 in    
Wind  
Wind Speed 9 mph (ENE)    
Max Wind Speed 17 mph    
Max Gust Speed 17 mph    
Visibility 2 miles    
Events Snow    
T = Trace of Precipitation, MM = Missing Value Source: NWS Daily Summary

Daily Weather History Graph

Daily Weather History Graph

Search for Another Location

Airport or City:

Trip Planner

Search our weather history database for the weather conditions in past years. The results will help you decide how hot, cold, wet, or windy it might be!

Date:

Astronomy

Feb. 21, 2013 Rise Set
Actual Time 7:29 AM CST 6:23 PM CST
Civil Twilight 7:00 AM CST 6:51 PM CST
Nautical Twilight 6:28 AM CST 7:23 PM CST
Astronomical Twilight 5:56 AM CST 7:56 PM CST
Moon 2:37 PM CST (2/21) 4:37 AM CST (2/21)
Length of Visible Light 11h 50m
Length of Day
10h 54m
Waxing Gibbous, 84% of the Moon is Illuminated
Feb 21
Waxing Gibbous
Feb 25
Full
Mar 4
Last Quarter
Mar 11
New
Mar 19
First Quarter

Hourly Weather History & Observations

Time (CST) Temp. Windchill Dew Point Humidity Pressure Visibility Wind Dir Wind Speed Gust Speed Precip Events Conditions
12:15 AM 19.9 °F 11.1 °F 14.9 °F 81% 29.97 in 1.5 mi ESE 6.9 mph - N/A Snow Light Snow
12:35 AM 19.8 °F 8.3 °F 14.9 °F 81% 29.97 in 1.8 mi ESE 10.4 mph - N/A Snow Light Snow
12:55 AM 19.4 °F 8.6 °F 14.5 °F 81% 29.97 in 1.2 mi ESE 9.2 mph - N/A Snow Snow
1:15 AM 19.4 °F 6.6 °F 14.4 °F 81% 29.97 in 1.5 mi SE 12.7 mph - N/A Snow Light Snow
1:35 AM 19.2 °F 10.2 °F 14.4 °F 81% 29.96 in 1.2 mi ESE 6.9 mph - N/A Snow Light Snow
1:55 AM 19.4 °F 10.4 °F 14.7 °F 82% 29.96 in 1.2 mi ESE 6.9 mph - 0.01 in Snow Light Snow
2:15 AM 19.0 °F 6.8 °F 14.0 °F 81% 29.96 in 2.0 mi ESE 11.5 mph - N/A Snow Light Snow
2:35 AM 19.0 °F 4.0 °F 13.8 °F 80% 29.95 in 2.0 mi SE 17.3 mph - N/A Snow Light Snow
2:55 AM 19.0 °F 6.1 °F 13.6 °F 79% 29.96 in 2.0 mi SE 12.7 mph - N/A Snow Light Snow
3:15 AM 19.0 °F 6.1 °F 13.6 °F 79% 29.95 in 2.0 mi ESE 12.7 mph - N/A Snow Light Snow
3:35 AM 18.5 °F 10.4 °F 13.3 °F 80% 29.93 in 2.0 mi ESE 5.8 mph - N/A Snow Light Snow
3:55 AM 18.5 °F 7.5 °F 13.1 °F 79% 29.93 in 4.0 mi ESE 9.2 mph - N/A Snow Light Snow
4:15 AM 18.3 °F 5.9 °F 12.7 °F 79% 29.96 in 5.0 mi ESE 11.5 mph - N/A Snow Light Snow
4:35 AM 18.1 °F 7.9 °F 12.7 °F 79% 29.93 in 2.0 mi East 8.1 mph - N/A Snow Light Snow
4:55 AM 17.6 °F 7.3 °F 12.6 °F 81% 29.92 in 1.2 mi ESE 8.1 mph - 0.01 in Snow Light Snow
5:15 AM 17.6 °F 9.3 °F 12.6 °F 81% 29.94 in 1.2 mi East 5.8 mph - N/A Snow Snow
5:55 AM 17.4 °F 9.1 °F 12.2 °F 80% 29.95 in 2.5 mi East 5.8 mph - N/A Snow Light Snow
6:15 AM 17.4 °F 8.0 °F 12.2 °F 80% 29.95 in 3.0 mi East 6.9 mph - N/A Snow Light Snow
6:35 AM 17.1 °F 7.6 °F 12.0 °F 81% 29.95 in 4.0 mi East 6.9 mph - N/A Snow Light Snow
6:55 AM 17.2 °F 7.8 °F 12.2 °F 81% 29.95 in 2.0 mi East 6.9 mph - N/A Snow Light Snow
7:15 AM 17.2 °F 10.2 °F 12.6 °F 82% 29.94 in 2.0 mi ENE 4.6 mph - N/A Snow Light Snow
7:35 AM 17.4 °F 10.4 °F 12.6 °F 81% 29.95 in 1.5 mi East 4.6 mph - 0.01 in Snow Light Snow
7:55 AM 17.4 °F 9.1 °F 12.6 °F 81% 29.96 in 0.8 mi East 5.8 mph - 0.01 in Snow Light Snow
8:15 AM 17.4 °F 7.1 °F 12.2 °F 80% 29.97 in 1.2 mi East 8.1 mph - N/A Snow Light Snow
8:35 AM 17.6 °F 7.3 °F 12.4 °F 80% 29.98 in 1.2 mi East 8.1 mph - N/A Snow Light Snow
8:55 AM 17.6 °F 6.4 °F 12.2 °F 79% 29.98 in 1.2 mi East 9.2 mph - N/A Snow Light Snow
9:15 AM 18.1 °F 8.9 °F 12.4 °F 78% 29.98 in 0.5 mi East 6.9 mph - N/A Snow Light Snow
9:35 AM 17.6 °F 7.3 °F 12.2 °F 79% 29.97 in 1.0 mi East 8.1 mph - N/A Snow Light Snow
9:55 AM 17.6 °F 6.4 °F 12.0 °F 79% 29.98 in 1.0 mi ENE 9.2 mph - N/A Snow Light Snow
10:15 AM 17.6 °F 7.3 °F 11.8 °F 78% 29.97 in 1.5 mi ENE 8.1 mph - N/A Snow Light Snow
10:35 AM 17.6 °F 6.4 °F 11.3 °F 76% 29.97 in 1.5 mi East 9.2 mph - N/A Snow Light Snow
10:55 AM 17.6 °F 7.3 °F 11.7 °F 78% 29.96 in 0.8 mi ENE 8.1 mph - N/A Snow Light Snow
11:15 AM 17.6 °F 7.3 °F 11.8 °F 78% 29.96 in 1.5 mi ENE 8.1 mph - N/A Snow Light Snow
11:35 AM 17.6 °F 6.4 °F 11.3 °F 76% 29.96 in 1.2 mi ENE 9.2 mph - N/A Snow Light Snow
11:55 AM 17.6 °F 6.4 °F 11.7 °F 78% 29.95 in 1.2 mi NE 9.2 mph - N/A Snow Light Snow
12:15 PM 17.8 °F 5.2 °F 11.3 °F 76% 29.94 in 1.8 mi ENE 11.5 mph - N/A Snow Light Snow
12:35 PM 18.0 °F 6.1 °F 11.8 °F 77% 29.93 in 1.2 mi ENE 10.4 mph - N/A Snow Light Snow
12:55 PM 18.0 °F 6.9 °F 11.5 °F 76% 29.92 in 2.0 mi ENE 9.2 mph - N/A Snow Light Snow
1:15 PM 18.1 °F 7.9 °F 11.3 °F 75% 29.92 in 2.5 mi NE 8.1 mph - N/A Snow Light Snow
1:35 PM 18.3 °F 6.6 °F 12.0 °F 76% 29.91 in 2.0 mi NNE 10.4 mph - N/A Snow Light Snow
1:55 PM 18.1 °F 6.3 °F 11.3 °F 75% 29.90 in 1.8 mi NE 10.4 mph - N/A Snow Light Snow
2:15 PM 18.1 °F 7.1 °F 11.8 °F 76% 29.90 in 1.5 mi NNE 9.2 mph - N/A Snow Light Snow
2:35 PM 18.0 °F 6.1 °F 12.0 °F 78% 29.89 in 1.0 mi NNE 10.4 mph - N/A Snow Light Snow
2:55 PM 18.1 °F 7.1 °F 12.2 °F 78% 29.89 in 1.0 mi NNE 9.2 mph - N/A Snow Light Snow
3:15 PM 18.3 °F 7.3 °F 12.6 °F 78% 29.89 in 1.0 mi NNE 9.2 mph - N/A Snow Light Snow
3:35 PM 18.5 °F 6.8 °F 12.6 °F 78% 29.89 in 1.2 mi NNE 10.4 mph - N/A Snow Light Snow
3:55 PM 18.5 °F 8.4 °F 12.9 °F 79% 29.90 in 1.2 mi NNE 8.1 mph - N/A Snow Light Snow
4:15 PM 18.5 °F 7.5 °F 12.9 °F 79% 29.91 in 1.5 mi NE 9.2 mph - N/A Snow Light Snow
4:35 PM 18.3 °F 8.2 °F 12.9 °F 79% 29.91 in 1.5 mi NE 8.1 mph - N/A Snow Light Snow
4:55 PM 18.3 °F 6.6 °F 12.9 °F 79% 29.90 in 0.8 mi NNE 10.4 mph - N/A Snow Light Snow
5:15 PM 18.3 °F 6.6 °F 13.1 °F 80% 29.90 in 0.8 mi NNE 10.4 mph 17.3 mph N/A Snow Light Snow
5:35 PM 18.1 °F 5.6 °F 12.9 °F 80% 29.90 in 1.0 mi NNE 11.5 mph - N/A Snow Light Snow
5:55 PM 17.4 °F 4.1 °F 12.2 °F 80% 29.90 in 1.0 mi NNE 12.7 mph - N/A Snow Light Snow
6:15 PM 17.1 °F 4.3 °F 12.0 °F 81% 29.90 in 1.0 mi NNE 11.5 mph - N/A Snow Light Snow
6:35 PM 17.1 °F 6.6 °F 11.8 °F 80% 29.90 in 1.5 mi NNE 8.1 mph - N/A Snow Light Snow
6:55 PM 16.9 °F 4.8 °F 11.7 °F 80% 29.90 in 2.0 mi NNE 10.4 mph - N/A Snow Light Snow
7:15 PM 16.7 °F 4.5 °F 11.5 °F 80% 29.91 in 3.0 mi NNE 10.4 mph - N/A Snow Light Snow
7:35 PM 16.7 °F 3.2 °F 11.3 °F 79% 29.91 in 4.0 mi NNE 12.7 mph - N/A Snow Light Snow
7:55 PM 16.3 °F 4.9 °F 10.9 °F 79% 29.91 in 5.0 mi NNE 9.2 mph - N/A   Haze
8:15 PM 16.3 °F 4.1 °F 10.8 °F 79% 29.91 in 4.0 mi NE 10.4 mph - N/A Snow Light Snow
8:35 PM 16.2 °F 4.7 °F 10.8 °F 79% 29.92 in 4.0 mi NNE 9.2 mph - N/A Snow Light Snow
8:55 PM 15.8 °F 4.2 °F 10.6 °F 80% 29.92 in 5.0 mi NE 9.2 mph - N/A   Haze
9:15 PM 15.8 °F 5.1 °F 10.4 °F 79% 29.92 in 2.5 mi NNE 8.1 mph - N/A Snow Light Snow
9:35 PM 15.8 °F 6.1 °F 10.4 °F 79% 29.93 in 3.0 mi NNE 6.9 mph - N/A Snow Light Snow
9:55 PM 15.8 °F 8.6 °F 10.8 °F 80% 29.93 in 2.0 mi North 4.6 mph - N/A Snow Light Snow
10:15 PM 15.8 °F 7.2 °F 10.4 °F 79% 29.93 in 2.5 mi North 5.8 mph - N/A Snow Light Snow
10:35 PM 15.4 °F 8.1 °F 10.4 °F 80% 29.93 in 5.0 mi North 4.6 mph - N/A Snow Light Snow
10:55 PM 14.9 °F 6.1 °F 9.7 °F 80% 29.92 in 3.0 mi North 5.8 mph - N/A Snow Light Snow
11:15 PM 14.2 °F 5.3 °F 9.3 °F 81% 29.91 in 4.0 mi NNW 5.8 mph - N/A Snow Light Snow
11:35 PM 13.8 °F 4.9 °F 8.6 °F 80% 29.91 in 4.0 mi NNW 5.8 mph - N/A Snow Light Snow
11:55 PM 12.9 °F 5.2 °F 8.1 °F 81% 29.91 in 5.0 mi NW 4.6 mph - N/A Snow Light Snow